This is the latest recevied weather packets stored in our database for station/object W2JGA. If no packets are shown the sender has not sent any weather packets the latest 1 day(s).
| Time | Temp. | Humidity | Pressure | Rain* | Wind** | Luminosity | Snow |
|---|---|---|---|---|---|---|---|
| 1836274766 | 27.78° C | 61% | 1017.2 hPa | 0 mm | 0.89 m/s, 148° | 0 W/m² | - |
| 1836274464 | 27.78° C | 61% | 1017.2 hPa | 0 mm | 1.79 m/s, 152° | 0 W/m² | - |
| 1836274318 | 27.78° C | 60% | 1017.2 hPa | 0 mm | 1.79 m/s, 149° | 0 W/m² | - |
| 1836274163 | 27.78° C | 62% | 1016.8 hPa | 0 mm | 1.79 m/s, 142° | 0 W/m² | - |
| 1778044638 | 18.33° C | 55% | 1016.5 hPa | 0 mm | 2.24 m/s, 322° | 0 W/m² | - |
| 1778044334 | 18.33° C | 55% | 1016.5 hPa | 0 mm | 1.79 m/s, 331° | 0 W/m² | - |
| 1778044033 | 18.33° C | 54% | 1016.5 hPa | 0 mm | 2.68 m/s, 336° | 0 W/m² | - |
| 1778043730 | 18.89° C | 54% | 1016.5 hPa | 0 mm | 0.45 m/s, 91° | 0 W/m² | - |
| 1778043426 | 18.89° C | 53% | 1016.1 hPa | 0 mm | 2.24 m/s, 341° | 0 W/m² | - |
| 1778043123 | 18.89° C | 52% | 1016.1 hPa | 0 mm | 3.13 m/s, 262° | 0 W/m² | - |
| 1778042820 | 18.89° C | 52% | 1016.1 hPa | 0 mm | 2.24 m/s, 297° | 0 W/m² | - |
| 1778042517 | 18.89° C | 53% | 1016.1 hPa | 0 mm | 2.24 m/s, 311° | 0 W/m² | - |
| 1778042214 | 18.89° C | 52% | 1016.1 hPa | 0 mm | 0.89 m/s, 107° | 0 W/m² | - |
| 1778041912 | 18.89° C | 52% | 1016.1 hPa | 0 mm | 2.68 m/s, 31° | 0 W/m² | - |
| 1778041611 | 18.89° C | 53% | 1016.1 hPa | 0 mm | 0.89 m/s, 89° | 0 W/m² | - |
| 1778041309 | 18.89° C | 52% | 1016.1 hPa | 0 mm | 1.34 m/s, 174° | 0 W/m² | - |
| 1778041007 | 18.89° C | 52% | 1015.8 hPa | 0 mm | 1.34 m/s, 192° | 0 W/m² | - |
| 1778040703 | 18.89° C | 52% | 1015.4 hPa | 0 mm | 2.24 m/s, 195° | 0 W/m² | - |
| 1778040401 | 18.89° C | 51% | 1015.8 hPa | 0 mm | 2.68 m/s, 202° | 0 W/m² | - |
| 1778040098 | 19.44° C | 51% | 1015.8 hPa | 0 mm | 1.79 m/s, 234° | 0 W/m² | - |
| 1778039795 | 19.44° C | 50% | 1015.4 hPa | 0 mm | 2.68 m/s, 253° | 0 W/m² | - |
| 1778039491 | 19.44° C | 50% | 1015.4 hPa | 0 mm | 2.68 m/s, 249° | 0 W/m² | - |
| 1778039188 | 19.44° C | 50% | 1015.4 hPa | 0 mm | 2.24 m/s, 270° | 0 W/m² | - |
| 1778038885 | 19.44° C | 49% | 1015.4 hPa | 0 mm | 2.68 m/s, 283° | 0 W/m² | - |
| 1778038583 | 19.44° C | 46% | 1015.4 hPa | 0 mm | 2.24 m/s, 182° | 0 W/m² | - |
* Rain latest hour (hover to see other rain measurements)
** Current wind speed in m/s (hover to see current wind gust speed)